Location: Kershaw
(34.5481°N, 80.5823°W)
Time: 21:06:09
(UTC+00:00)

Vanguard 2 Rocket - Visible Passes

Search period start: 30 September 2022 00:00
Search period end: 10 October 2022 00:00
Orbit: 553 x 3323 km, 32.9° (Epoch: 30 September)

Date Brightness Start Highest point End Pass type
(mag) Time Alt. Az. Time Alt. Az. Time Alt. Az.
30 Sep 10.1 02:23:03 10° SSW 02:29:47 22° S 02:29:47 22° S visible
30 Sep 6.7 09:19:48 47° S 09:19:48 47° S 09:23:21 10° SE visible
01 Oct 9.9 01:22:10 10° SSW 01:33:34 24° SSE 01:33:34 24° SSE visible
01 Oct 10.4 03:36:15 10° SW 03:39:22 17° SW 03:39:22 17° SW visible
01 Oct 8.7 08:23:21 16° ESE 08:23:21 16° ESE 08:24:12 10° ESE visible
01 Oct 7.7 10:29:08 13° WSW 10:31:40 19° SSW 10:34:35 10° SSE visible
02 Oct 10.1 00:22:26 10° S 00:33:28 18° SE 00:37:22 17° SE visible
02 Oct 9.9 02:34:02 10° SW 02:43:10 30° SSW 02:43:10 30° SSW visible
02 Oct 7.2 09:32:41 33° SSW 09:32:41 33° SSW 09:36:07 10° SE visible
02 Oct 10.4 23:25:25 10° SSE 23:31:37 12° SE 23:37:20 10° ESE visible
03 Oct 9.6 01:32:21 10° SSW 01:46:57 35° SSE 01:46:57 35° SSE visible
03 Oct 10.3 03:48:27 10° WSW 03:52:45 20° SW 03:52:45 20° SW visible
03 Oct 8.6 08:36:18 17° SE 08:36:18 17° SE 08:37:14 10° SE visible
03 Oct 8.3 10:43:58 10° SW 10:44:20 10° SW 10:44:42 10° SW visible
04 Oct 9.7 00:31:27 10° SSW 00:46:26 28° SE 00:50:42 25° SE visible
04 Oct 9.7 02:45:44 10° SW 02:56:30 38° SSW 02:56:30 38° SSW visible
04 Oct 7.9 09:45:43 21° SSW 09:45:43 21° SSW 09:48:23 10° SSE visible
04 Oct 10.1 23:31:44 10° S 23:44:31 21° SE 23:54:26 12° ESE visible
05 Oct 9.3 01:43:29 10° SW 02:00:14 47° SSE 02:00:14 47° SSE visible
05 Oct 10.3 04:01:03 10° WSW 04:06:02 22° WSW 04:06:02 22° WSW visible
05 Oct 8.7 08:49:22 14° SSE 08:49:22 14° SSE 08:50:00 10° SE visible
06 Oct 9.5 00:41:53 10° SSW 00:59:17 39° SSE 01:03:55 34° ESE visible
06 Oct 9.6 02:57:59 10° WSW 03:09:42 44° SW 03:09:42 44° SW visible
06 Oct 8.5 09:58:50 11° SSW 09:58:50 11° SSW 09:59:29 10° SSW visible
06 Oct 9.9 23:41:10 10° SSW 23:57:15 31° SE 00:07:32 17° E visible
07 Oct 9.1 01:55:16 10° SW 02:13:20 59° SSE 02:13:20 59° SSE visible
07 Oct 10.3 04:13:57 10° WSW 04:19:07 23° WSW 04:19:07 23° WSW visible
08 Oct 9.3 00:53:10 10° SW 01:12:05 50° SSE 01:16:54 42° ESE visible
08 Oct 9.6 03:10:37 10° WSW 03:22:41 46° WSW 03:22:41 46° WSW visible
08 Oct 9.8 23:51:50 10° SSW 00:09:53 42° SSE 00:20:25 22° E visible
09 Oct 9.0 02:07:34 10° WSW 02:26:11 69° S 02:26:11 69° S visible
09 Oct 10.3 04:27:00 10° W 04:31:57 22° W 04:31:57 22° W visible
09 Oct 10.2 22:51:25 10° SSW 23:07:44 33° SE 23:22:36 10° E visible
